Location: Estes Par
(40.3770°N, 105.5210°W)
Time: 17:14:42
(UTC-06:00)

Tiangong 2 - Pass Details

Date: 12 October 2017
Orbit: 388 x 391 km, 42.8° (Epoch: 20 October)

Event Time Altitude Azimuth Distance (km) Brightness Sun altitude
Exits shadow 06:20:53 15° 280° (W) 1,141 2.8 -10.2°
Maximum altitude 06:23:19 54° 356° (N) 478 1.5 -9.7°
Drops below altitude 10° 06:26:28 10° 75° (ENE) 1,417 5.3 -9.1°
Sets 06:28:34 0° 80° (E) 2,273 6.9 -8.7°
